Regional Weather Roundup
Issued by NWS Charleston, SC

Current Version | Previous Version | Graphics & Text | Print | Product List | Glossary On
Versions: 1 2 3 4 5 6 7 8 9 10 11 12 13 14 15 16 17 18 19 20 21 22 23 24 25 26 27 28 29 30 31 32 33 34 35 36 37 38 39 40 41 42 43 44 45 46 47 48 49 50
973
ASUS42 KCHS 200927
RWRCHS

REGIONAL WEATHER ROUNDUP
NATIONAL WEATHER SERVICE CHARLESTON SC
400 AM EST FRI JAN 20 2017

NOTE: "FAIR" INDICATES FEW OR NO CLOUDS BELOW 12,000 FEET WITH NO
SIGNIFICANT WEATHER AND/OR OBSTRUCTIONS TO VISIBILITY.

NOT ALL STATIONS ARE QUALITY CONTROLLED. USE DATA WITH CAUTION...
ESPECIALLY DEWPOINT OBSERVATIONS.

SCZ027-030-031-034>040-042>050-201000-
...SOUTHEAST SOUTH CAROLINA...

CITY           SKY/WX    TMP DP  RH WIND       PRES   REMARKS
N CHARLESTON   CLOUDY    58  54  86 SE5       29.92F
WATERFRONT PRK   N/A     58  56  92 CALM      29.92F
MOUNT PLEASANT LGT RAIN  55  55 100 CALM      29.93S
JOHNS ISLAND   PTSUNNY   57  57 100 CALM      29.92F
PINOPOLIS        N/A     55  54  94 SE5       29.84F
MONCKS CORNER  PTSUNNY   54  52  94 CALM      29.92F
SUMMERVILLE    FAIR      59  59 100 CALM      29.92F
BEAUFORT MCAS  MOCLDY    59  57  93 CALM      29.93S
BEAUFORT ARPT  PTSUNNY   57  55  94 CALM      29.93S
HILTON HEAD IS CLOUDY    59  59 100 S7        29.93F
WALTERBORO     CLOUDY    55  54  94 CALM      29.93S
ALLENDALE      PTSUNNY   59  57  94 SE5       29.88F

...SOUTHERN MIDLANDS AND PEE DEE...

CITY           SKY/WX    TMP DP  RH WIND       PRES   REMARKS
GEORGETOWN     FAIR      50  50 100 CALM      29.93F
KINGSTREE      FAIR      52  48  87 SE5       29.91F
ORANGEBURG     CLOUDY    57  54  89 SW3       29.92S
BARNWELL       FAIR      61  59  94 S6        29.88F
AIKEN          RAIN      57  54  88 SE8       29.90F
MANNING        PTSUNNY   54  43  66 CALM      29.91F
COLUMBIA       CLOUDY    57  52  83 E3        29.89F
SUMTER         CLOUDY    53  48  83 CALM      29.88F
FLORENCE       MOCLDY    51  49  92 E5        29.92F
MYRTLE BEACH   CLOUDY    57  52  82 E7        29.94F
N MYRTLE BEACH CLOUDY    57  51  80 E6        29.93F

$$

GAZ063-065-086>088-099>101-113>116-118-119-134>141-150-201000-
...SOUTHEAST GEORGIA...

CITY           SKY/WX    TMP DP  RH WIND       PRES   REMARKS
SAVANNAH ARPT  CLOUDY    59  56  89 S5        29.93F
HUNTER AAF     CLOUDY    60  60 100 CALM      29.91F
FORT STEWART   CLOUDY    58  55  92 CALM      29.89F
STATESBORO     CLOUDY    61  60  97 S5        29.90F
SYLVANIA       CLOUDY   N/A N/A N/A S3        29.90F
CLAXTON        PTSUNNY  N/A N/A N/A CALM      29.90F

...CSRA...CENTRAL AND FAR SOUTHEAST GEORGIA...

CITY           SKY/WX    TMP DP  RH WIND       PRES   REMARKS
THOMSON        CLOUDY    65  63  92 SW6       29.87F
AUGUSTA-BUSH   LGT RAIN  62  57  83 S9        29.87F
AUGUSTA-DANIEL LGT RAIN  60  55  83 SE8       29.87F
SWAINSBORO     PTSUNNY   61  61 100 S6        29.88F
VIDALIA        CLOUDY    63  63 100 S6        29.88F
EASTMAN        FAIR      63  63 100 CALM      29.89S
HAZLEHURST     PTSUNNY   65  65 100 S8G16     29.85F
ALMA           CLOUDY    63  63 100 S6        29.91F
WAYCROSS       CLOUDY    66  66 100 SW7       29.92F
JESUP          FAIR      59  55  88 CALM      29.92F
BAXLEY         FAIR      63  63 100 S6        29.90F
BRUNSWICK      CLOUDY    64  63  94 S6        29.94S
SAINT SIMONS   CLOUDY    65  61  87 S5        29.93F

$$

SCZ027-028-034-036>038-045-046-048>050-GAZ119-141-201000-
...LAKE AND SUPPLEMENTAL COASTAL OBSERVATIONS...

STATION/POSITION TIME  TEMP    WIND        PRES    WAVE   SWELL
                       AIR SEA DIR/SP/G            HT/PER HT/PER/DIR
                 (UTC) (F)     (DEG/KT/KT) (MB)    (FT/S) (FT/S/D)
WINYAH BAY       0845   56      60/  5     1013.0F
LAKE MURRAY      0830   57     150/  7/ 11 1011.5F
ACE BASIN NERRS  0845   57        CALM     1014.0S
FORT PULASKI     0900   58 58   CALM  /  2 1013.7
SAPELO ISLAND    0900   61     170/  3     1013.0

$$

ANZ835-935-AMZ111-154-330-350-352-354-370-450-454-472-201000-
...C-MAN AND BUOY OBSERVATIONS...

STATION/POSITION TIME  TEMP    WIND        PRES    WAVE   SWELL
                       AIR SEA DIR/SP/G            HT/PER HT/PER/DIR
                 (UTC) (F)     (DEG/KT/KT) (MB)    (FT/S) (FT/S/D)
BUOY 41004       0850   69 72   60/  2/  2 1012.8F   3/10   2/ 70/10
BUOY 41008       0850   61 60  190/  4/  6 1013.3F   2/11   2/ 50/11
FOLLY BEACH CMAN 0900   57     350/  2/  2 1013.9R
CAPERS NEARSHORE 0808   56 55   90/  6/  8 1013.1F
FRIPP NEARSHORE  0908   58 57  150/  2/  4 1012.9F


STATION/POSITION TIME  TEMP    WIND        PRES    WAVE   SWELL
                       AIR SEA DIR/SP/G            HT/PER HT/PER/DIR
                 (UTC) (F)     (DEG/KT/KT) (MB)    (FT/S) (FT/S/D)
5E ST. MARYS GA  0900      64                N/A     1/11
FRYING PAN BUOY  0910   69 71  100/ 10/ 12 1013.3
BUOY 41025       0850   58 76   40/  2/  8 1016.2R   6/11   5/ 70/11
CAPE LOOKOUT NC  0900   53      10/  5/  5 1014.7F
BUOY 41002       0850   67 71   CALM  /  2 1015.5R   5/ 9   5/ 10/ 9
BUOY 41010       NOT AVBL
ST AUGUSTINE FL  0900   62 62  230/  5/  6 1015.1F


$$




USA.gov is the U.S. government's official web portal to all federal, state and local government web resources and services.